Monarch Pass, CO

5:13 AM MST on January 24, 2018 (GMT -0700)
Monarch Pass

Weather History for KMYP - October, 2012

Change the Weather History Date:

Sunday, October 7, 2012

  Actual Average (KALS) Record (KALS)
Temperature  
Mean Temperature 29 °F -  
Max Temperature 37 °F 66 °F 81 °F (1979)
Min Temperature 21 °F 29 °F 10 °F (1955)
Degree Days  
Heating Degree Days 36    
Moisture  
Dew Point 0 °F    
Average Humidity 31    
Maximum Humidity 42    
Minimum Humidity 20    
Precipitation  
Precipitation 0.00 in - - ()
Sea Level Pressure  
Sea Level Pressure 30.33 in    
Wind  
Wind Speed 21 mph (WSW)    
Max Wind Speed 34 mph    
Max Gust Speed 41 mph    
Averages and records for this station are not official NWS values.
T = Trace of Precipitation, MM = Missing Value Source: NWS Daily Summary

Daily Weather History Graph

Daily Weather History Graph

Search for Another Location

Airport or City:

Trip Planner

Search our weather history database for the weather conditions in past years. The results will help you decide how hot, cold, wet, or windy it might be!

Date:

Astronomy

Oct. 07, 2012 Rise Set
Actual Time 7:06 AM MDT 6:37 PM MDT
Civil Twilight 6:40 AM MDT 7:04 PM MDT
Nautical Twilight 6:09 AM MDT 7:34 PM MDT
Astronomical Twilight 5:38 AM MDT 8:05 PM MDT
Moon 11:55 PM MDT (10/7) 1:42 PM MDT (10/7)
Length of Visible Light 12h 24m
Length of Day
11h 31m
Waning Gibbous, 55% of the Moon is Illuminated
Oct 7
Waning Gibbous
Oct 8
Last Quarter
Oct 15
New
Oct 21
First Quarter
Oct 29
Full

Hourly Weather History & Observations

Time (MDT) Temp. Windchill Dew Point Humidity Pressure Visibility Wind Dir Wind Speed Gust Speed Precip Events Conditions
12:02 AM 24.8 °F - -0.4 °F 34% 30.31 in - North - - N/A   Overcast
12:20 AM 24.8 °F - -0.4 °F 34% 30.30 in - North - - N/A   Overcast
12:42 AM 26.6 °F - -4.0 °F 26% 30.30 in - North - - N/A   Overcast
1:02 AM 26.6 °F - -4.0 °F 26% 30.30 in - North - - N/A   Overcast
1:22 AM 24.8 °F - -0.4 °F 34% 30.29 in - North - - N/A   Overcast
1:42 AM 23.0 °F - -0.4 °F 36% 30.29 in - North - - N/A   Mostly Cloudy
2:02 AM 23.0 °F 9.2 °F -0.4 °F 36% 30.29 in - WSW 17.3 mph - N/A   Unknown
2:22 AM 23.0 °F - -0.4 °F 36% 30.29 in - North - - N/A   Overcast
2:42 AM 23.0 °F 9.2 °F -0.4 °F 36% 30.28 in - WSW 17.3 mph - N/A   Mostly Cloudy
3:01 AM 23.0 °F - -2.2 °F 33% 30.27 in - North - - N/A   Overcast
3:23 AM 23.0 °F - -2.2 °F 33% 30.27 in - North - - N/A   Scattered Clouds
3:41 AM 23.0 °F - -2.2 °F 33% 30.26 in - North - - N/A   Scattered Clouds
4:02 AM 23.0 °F - -2.2 °F 33% 30.27 in - North - - N/A   Scattered Clouds
4:22 AM 23.0 °F - -2.2 °F 33% 30.27 in - North - - N/A   Scattered Clouds
4:42 AM 23.0 °F - -2.2 °F 33% 30.27 in - North - - N/A   Mostly Cloudy
5:01 AM 21.2 °F - -2.2 °F 36% 30.27 in - North - - N/A   Mostly Cloudy
5:23 AM 21.2 °F - -0.4 °F 39% 30.26 in - North - - N/A   Mostly Cloudy
5:43 AM 21.2 °F - -0.4 °F 39% 30.26 in - North - - N/A   Scattered Clouds
6:01 AM 21.2 °F - -0.4 °F 39% 30.27 in - North - - N/A   Clear
6:21 AM 21.2 °F - -0.4 °F 39% 30.27 in - North - - N/A   Clear
6:42 AM 21.2 °F - -0.4 °F 39% 30.26 in - North - - N/A   Clear
7:00 AM 21.2 °F - -0.4 °F 39% 30.25 in - North - - N/A   Clear
7:41 AM 21.2 °F - 1.4 °F 42% 30.27 in - North - - N/A   Clear
8:01 AM 21.2 °F - 1.4 °F 42% 30.27 in - North - - N/A   Clear
8:41 AM 21.2 °F - 1.4 °F 42% 30.30 in - North - - N/A   Unknown
9:01 AM 23.0 °F - 1.4 °F 39% 30.30 in - North - - N/A   Clear
9:21 AM 23.0 °F - 1.4 °F 39% 30.32 in - North - - N/A   Clear
9:41 AM 24.8 °F - 1.4 °F 36% 30.33 in - North - - N/A   Clear
10:01 AM 24.8 °F - 1.4 °F 36% 30.33 in - North - - N/A   Clear
10:21 AM 26.6 °F - 1.4 °F 34% 30.33 in - North - - N/A   Clear
10:40 AM 28.4 °F - 1.4 °F 31% 30.34 in - North - - N/A   Clear
11:00 AM 28.4 °F - 1.4 °F 31% 30.33 in - North - - N/A   Clear
11:19 AM 28.4 °F 14.4 °F 1.4 °F 31% 30.34 in - West 23.0 mph 27.6 mph N/A   Clear
11:42 AM 30.2 °F 18.5 °F 1.4 °F 29% 30.33 in - WSW 17.3 mph 26.5 mph N/A   Clear
12:00 PM 30.2 °F 17.4 °F 1.4 °F 29% 30.33 in - West 20.7 mph 27.6 mph N/A   Clear
12:22 PM 32.0 °F 20.1 °F 1.4 °F 27% 30.34 in - West 19.6 mph 28.8 mph N/A   Clear
12:40 PM 32.0 °F 19.2 °F 1.4 °F 27% 30.33 in - West 23.0 mph 33.4 mph N/A   Clear
1:01 PM 32.0 °F 19.8 °F 1.4 °F 27% 30.34 in - West 20.7 mph 29.9 mph N/A   Clear
1:20 PM 33.8 °F 23.2 °F 1.4 °F 25% 30.34 in - West 17.3 mph 23.0 mph N/A   Clear
1:39 PM 35.6 °F 28.0 °F 1.4 °F 24% 30.34 in - West 10.4 mph 27.6 mph N/A   Clear
1:59 PM 35.6 °F 24.5 °F 1.4 °F 24% 30.33 in - WSW 20.7 mph 29.9 mph N/A   Clear
2:20 PM 37.4 °F 27.2 °F 1.4 °F 22% 30.33 in - West 19.6 mph 26.5 mph N/A   Clear
2:40 PM 37.4 °F 26.6 °F -0.4 °F 20% 30.33 in - SW 21.9 mph 29.9 mph N/A   Clear
2:59 PM 37.4 °F 27.5 °F -0.4 °F 20% 30.34 in - West 18.4 mph 33.4 mph N/A   Clear
3:16 PM 37.4 °F 26.1 °F -0.4 °F 20% 30.33 in - SW 24.2 mph 32.2 mph N/A   Clear
3:38 PM 37.4 °F 25.9 °F -0.4 °F 20% 30.34 in - WSW 25.3 mph 34.5 mph N/A   Clear
3:59 PM 37.4 °F 26.4 °F -0.4 °F 20% 30.34 in - WSW 23.0 mph 35.7 mph N/A   Clear
4:21 PM 37.4 °F 25.0 °F -0.4 °F 20% 30.33 in - West 29.9 mph 38.0 mph N/A   Clear
4:41 PM 35.6 °F 22.7 °F -0.4 °F 22% 30.33 in - WSW 28.8 mph 40.3 mph N/A   Clear
5:01 PM 35.6 °F 21.7 °F 1.4 °F 24% 30.34 in - West 34.5 mph 41.4 mph N/A   Clear
5:20 PM 35.6 °F 21.9 °F 1.4 °F 24% 30.34 in - West 33.4 mph 41.4 mph N/A   Clear
5:42 PM 35.6 °F 22.7 °F 1.4 °F 24% 30.35 in - West 28.8 mph 33.4 mph N/A   Clear
6:01 PM 33.8 °F 19.9 °F -0.4 °F 23% 30.35 in - WSW 31.1 mph 38.0 mph N/A   Clear
6:41 PM 32.0 °F 18.6 °F -0.4 °F 25% 30.36 in - WSW 25.3 mph 35.7 mph N/A   Clear
7:01 PM 30.2 °F 16.5 °F -0.4 °F 27% 30.37 in - WSW 24.2 mph 33.4 mph N/A   Clear
7:21 PM 30.2 °F 16.5 °F 1.4 °F 29% 30.38 in - WSW 24.2 mph 31.1 mph N/A   Clear
7:41 PM 30.2 °F 16.5 °F 1.4 °F 29% 30.39 in - WSW 24.2 mph 31.1 mph N/A   Clear
8:01 PM 28.4 °F 14.1 °F 1.4 °F 31% 30.39 in - WSW 24.2 mph - N/A   Clear
8:21 PM 28.4 °F - 1.4 °F 31% 30.40 in - North - - N/A   Clear
8:43 PM 28.4 °F 14.4 °F 1.4 °F 31% 30.40 in - WSW 23.0 mph - N/A   Clear
9:02 PM 28.4 °F - -0.4 °F 29% 30.40 in - North - - N/A   Clear
9:21 PM 28.4 °F - 1.4 °F 31% 30.40 in - North - - N/A   Clear
9:42 PM 28.4 °F - -0.4 °F 29% 30.40 in - North - - N/A   Clear
10:01 PM 28.4 °F - -0.4 °F 29% 30.39 in - North - - N/A   Clear
10:22 PM 28.4 °F - -0.4 °F 29% 30.40 in - North - - N/A   Clear
10:42 PM 26.6 °F - -0.4 °F 31% 30.40 in - North - - N/A   Clear
11:01 PM 26.6 °F - -0.4 °F 31% 30.39 in - North - - N/A   Clear
11:22 PM 26.6 °F - -0.4 °F 31% 30.39 in - North - - N/A   Clear
11:41 PM 26.6 °F - -0.4 °F 31% 30.39 in - North - - N/A   Clear